GFSWCAN_500_spd_057.txt.gz
Wind_Speed
34 28 25 24 23 23 25 25 28 30 29 25 24 23 21 19 19 22 25 30 33 34 33 41 41 27 30 25 27 29 28 24 24 19 14 10 15 14 15 6 17 28 30 27 24 42 48 21 40 59 55 61 59 56
32 25 25 24 22 23 24 27 29 31 28 27 24 22 22 23 22 22 23 29 32 33 32 35 35 29 34 26 25 33 26 28 31 27 19 17 17 20 24 22 17 12 9 9 12 30 45 17 40 59 58 53 52 52
31 24 24 25 23 23 24 27 28 28 28 26 24 23 21 21 21 24 27 28 33 31 29 31 35 34 32 31 31 35 36 33 28 25 22 17 22 23 23 19 14 8 3 9 16 22 35 22 50 58 57 52 51 46
29 24 24 24 23 20 22 25 27 28 27 26 26 24 23 22 22 22 24 30 29 28 29 28 29 33 31 32 34 34 34 36 37 33 28 17 12 13 13 14 10 8 5 13 14 16 22 24 48 54 53 52 42 46
27 23 23 23 20 20 22 27 29 28 26 23 24 25 23 22 21 21 24 27 27 27 26 24 25 30 30 29 30 33 33 32 31 31 29 24 16 9 15 14 13 9 9 4 13 18 26 29 42 47 50 56 42 43
25 22 21 21 19 21 24 27 25 26 25 24 24 24 24 23 22 23 23 25 26 26 24 21 17 26 30 30 28 26 29 28 26 28 26 23 19 12 6 15 16 11 7 7 13 19 28 38 45 42 49 50 41 42
24 19 19 21 19 20 23 23 23 22 22 23 23 25 24 24 23 24 26 27 30 28 25 21 21 19 26 27 29 27 26 27 28 25 23 25 19 17 13 14 16 6 1 6 12 18 27 21 44 41 47 50 37 48
22 17 18 18 18 19 21 20 20 18 22 21 22 24 23 23 23 23 24 26 28 30 28 25 23 19 21 24 26 27 26 27 27 28 25 21 19 18 18 18 16 12 7 5 4 8 19 25 29 38 42 45 38 38
19 17 16 15 17 18 17 17 19 18 20 22 23 23 22 22 23 23 25 25 25 24 24 24 23 22 22 22 23 24 24 25 25 25 24 23 21 17 18 19 17 11 9 8 4 6 8 18 27 28 40 49 51 49
16 16 14 12 16 16 15 16 17 18 20 22 24 25 23 22 21 21 21 20 21 22 22 22 23 23 22 22 22 23 25 26 27 25 24 23 23 23 20 17 16 15 12 9 3 4 8 14 14 24 38 34 37 33
14 15 13 11 13 14 14 14 16 17 20 23 26 27 24 22 21 22 22 22 23 24 23 22 23 24 23 21 20 21 21 23 26 26 26 25 22 21 21 19 16 13 11 8 6 2 6 7 9 18 21 21 25 34
12 13 10 10 11 11 13 14 15 18 21 23 25 25 25 23 21 21 20 21 22 24 23 22 22 22 23 22 20 21 21 22 23 24 25 24 23 22 20 19 17 15 13 11 9 5 3 4 7 10 20 28 29 29
11 10 8 8 9 11 13 15 17 20 22 23 24 24 23 21 20 20 20 21 22 22 22 23 24 23 22 22 22 23 23 23 24 24 25 26 26 24 23 20 17 17 15 14 12 11 11 9 8 9 11 18 23 27
11 9 8 8 8 10 12 15 17 19 21 22 22 23 21 21 24 23 22 22 22 21 19 20 22 23 22 22 22 23 24 25 27 28 28 27 26 26 27 26 24 20 18 16 15 14 13 14 15 12 11 12 16 23
11 8 8 8 8 10 13 15 17 20 21 22 22 23 23 21 22 25 23 19 20 22 23 22 23 25 24 22 19 22 24 28 29 31 32 31 27 25 25 26 25 24 24 22 20 19 18 17 14 16 16 16 17 17
11 7 6 8 9 11 13 15 17 19 21 22 22 23 23 21 22 28 25 16 18 22 26 25 28 29 28 27 25 25 24 27 28 27 30 33 30 26 24 24 25 26 27 27 26 23 21 22 22 20 19 17 17 18
9 6 6 8 9 12 15 15 17 19 21 22 24 24 25 25 25 27 25 17 19 26 27 29 32 34 35 38 41 31 26 28 24 25 27 32 31 28 26 24 25 26 25 25 26 24 24 23 23 23 23 24 22 19
6 6 7 9 10 11 13 14 16 19 22 23 24 22 22 24 24 24 25 26 26 29 30 35 34 34 39 46 35 33 27 26 25 26 25 27 27 26 23 22 21 21 21 22 23 23 23 24 25 25 24 24 24 25
5 6 7 8 7 9 11 13 16 18 19 25 28 26 27 30 29 29 31 25 28 28 33 35 36 33 35 44 30 29 26 35 29 27 25 27 28 28 26 24 22 20 19 18 18 18 17 18 20 23 24 24 25 25
4 5 5 5 7 9 11 14 16 18 21 22 24 28 30 28 30 27 29 30 27 28 31 34 29 35 33 29 25 27 38 40 33 29 29 31 31 30 29 27 26 25 24 23 22 22 21 21 22 21 21 21 23 24
4 3 3 5 6 9 12 14 14 16 21 24 22 27 30 28 24 24 24 22 32 31 30 31 32 27 22 25 42 42 37 32 30 31 33 31 29 28 28 27 26 25 23 21 20 20 22 23 23 22 21 20 20 21
2 2 3 5 7 11 13 14 15 12 18 27 24 26 30 30 28 23 21 29 33 33 33 33 32 28 27 27 30 27 27 29 33 35 34 32 29 28 27 24 22 21 20 20 21 21 22 22 23 23 23 22 21 20
2 2 4 6 9 10 11 14 14 15 17 19 25 28 29 29 27 28 27 29 32 32 30 30 31 28 27 28 29 29 29 31 32 33 32 30 30 29 29 26 22 20 19 19 20 20 21 21 22 23 22 21 20 19
2 3 5 8 9 11 14 13 14 13 16 20 25 29 32 33 33 34 35 36 36 33 29 30 26 27 30 30 28 27 28 26 26 27 28 29 28 28 26 26 25 23 22 21 20 20 20 20 21 21 21 20 19 17
1 4 6 8 10 11 13 14 14 13 18 20 26 30 33 36 35 38 38 38 37 35 31 29 30 31 29 28 26 25 23 22 21 22 23 25 26 26 27 28 29 29 28 27 27 25 24 24 23 21 20 19 18 17
4 6 7 7 5 8 13 13 15 16 18 22 29 32 34 36 39 40 40 39 34 33 31 30 29 27 26 24 23 22 21 22 23 24 25 26 27 27 29 31 32 30 28 28 25 22 20 20 20 21 19 17 17 15
4 5 3 1 4 9 11 14 14 17 20 24 27 30 35 39 39 40 40 38 36 33 33 30 25 23 23 21 22 23 25 25 25 24 25 26 27 28 31 34 32 28 26 24 22 17 13 12 12 12 12 13 13 12
5 6 4 4 4 9 13 13 14 15 19 23 26 29 33 37 37 38 40 39 36 34 34 27 23 22 21 23 25 25 25 25 27 28 27 27 28 28 31 35 31 28 27 22 17 13 9 5 2 4 6 7 8 8
5 7 8 8 9 9 11 13 13 17 20 24 24 27 32 34 37 39 40 38 36 35 33 26 23 20 20 24 27 28 27 27 28 29 29 31 32 31 31 34 34 29 29 27 22 17 14 11 9 7 6 6 6 5
5 8 11 13 11 10 11 12 14 15 18 21 23 26 31 35 38 39 40 39 37 35 31 24 22 19 23 28 31 32 29 29 29 30 30 31 32 33 32 32 36 35 30 28 27 26 24 21 18 15 13 11 9 8
6 8 12 14 12 10 11 13 15 16 18 21 23 26 30 35 38 39 39 39 36 35 31 22 21 19 23 27 29 31 30 30 31 31 31 31 31 32 34 33 33 34 36 35 33 31 29 27 24 23 21 19 17 15
10 10 11 13 11 9 10 12 15 17 18 20 22 26 30 35 37 39 37 38 35 35 30 23 21 18 20 25 27 28 28 29 30 31 31 31 32 32 32 34 34 34 33 33 33 32 31 29 27 24 22 20 19 17
9 10 11 13 13 11 11 12 14 17 18 20 22 25 28 33 36 38 35 36 33 33 30 23 22 19 19 23 25 27 28 27 27 27 28 29 31 31 32 33 32 33 34 34 34 33 31 30 28 26 25 23 21 19

GFSWCAN_500_spd_060.txt.gz
Wind_Speed
33 32 29 27 25 25 25 26 25 26 27 25 23 22 20 19 21 21 21 21 26 22 21 23 24 22 24 25 28 31 31 27 25 27 20 15 12 11 10 9 7 19 22 24 24 27 33 35 38 42 50 47 42 50
31 30 28 26 25 25 22 23 27 27 25 23 24 24 24 20 18 19 20 26 24 22 22 19 24 22 24 26 28 28 30 32 29 25 22 15 12 9 11 11 9 9 16 23 23 17 29 35 30 34 42 41 40 46
30 28 27 25 23 21 22 25 25 26 25 24 24 24 24 21 21 22 24 25 24 23 20 17 24 23 26 26 27 30 30 32 33 29 18 15 14 16 15 14 12 8 5 3 6 9 17 39 40 28 40 38 33 39
28 27 25 23 21 20 23 25 24 25 21 22 24 24 25 24 23 24 25 25 23 23 19 17 20 24 27 27 26 28 28 26 30 28 26 16 8 9 14 14 15 12 13 12 9 2 8 25 37 37 34 43 50 43
26 25 23 21 21 21 23 23 22 20 22 21 23 24 24 24 23 23 24 26 26 24 23 21 19 21 25 26 25 28 30 29 28 30 26 22 14 3 4 11 9 14 8 7 11 11 4 8 15 34 43 52 50 46
24 23 21 20 20 21 22 19 19 18 21 20 23 24 23 23 23 22 23 24 25 25 25 26 21 23 26 26 25 26 28 29 29 25 25 23 14 8 6 5 8 8 8 4 2 10 8 8 18 17 48 50 38 38
23 21 18 18 17 20 18 17 19 18 20 21 23 24 23 22 22 23 24 25 25 24 24 24 23 23 25 25 26 24 25 26 26 24 24 22 20 17 13 13 13 13 11 11 13 4 7 11 16 19 50 49 44 40
22 20 15 15 14 17 15 16 16 17 18 21 23 24 23 21 21 22 23 25 25 25 22 21 22 22 23 24 25 26 25 25 25 25 24 23 22 18 19 17 14 14 11 9 9 11 5 12 15 26 40 45 48 50
22 18 13 12 12 13 11 13 14 15 19 22 24 24 23 21 20 20 21 22 22 22 20 18 19 21 21 19 20 23 24 26 25 24 24 23 20 19 18 17 16 13 10 11 7 6 7 1 14 31 43 45 46 44
21 14 10 8 10 10 10 11 13 16 18 20 23 23 22 21 18 18 19 18 17 17 17 16 17 18 19 18 18 20 22 22 24 25 25 24 23 22 20 19 18 16 14 13 14 11 10 7 4 23 31 44 46 42
18 11 8 6 8 8 9 10 13 14 17 20 21 22 21 20 19 19 18 17 16 15 16 19 20 19 18 16 15 17 20 22 22 25 23 24 23 23 22 21 19 17 15 15 13 11 10 10 11 8 16 33 41 45
15 9 7 6 6 7 8 10 12 15 17 19 21 21 20 19 19 19 18 18 17 16 16 18 19 20 18 17 15 20 18 24 25 23 23 23 24 24 23 21 20 19 17 14 12 11 9 5 5 7 11 10 27 40
13 9 7 6 6 7 8 10 12 15 18 19 20 20 19 17 17 21 22 18 16 17 18 18 18 20 22 22 21 18 17 19 18 22 21 21 22 24 24 22 21 19 17 16 14 12 8 7 7 7 7 7 12 19
11 9 7 6 7 7 9 12 14 16 18 19 20 21 21 21 18 20 26 21 15 15 18 21 22 23 25 24 23 26 26 26 20 19 20 22 26 26 23 21 20 22 20 18 18 15 14 10 8 9 12 11 13 16
9 8 7 6 6 7 9 11 13 15 18 20 21 22 22 22 21 22 24 23 18 18 22 26 23 28 32 28 31 34 41 30 26 20 18 19 25 28 26 21 20 21 22 23 21 22 20 16 14 11 10 14 14 14
7 7 6 5 5 6 9 12 12 14 17 20 21 24 24 23 24 29 21 22 24 25 27 29 32 33 33 33 35 42 41 36 26 17 19 17 21 21 22 22 23 23 23 23 24 23 21 21 18 17 15 15 15 18
7 5 5 5 5 8 9 11 11 14 16 18 22 25 24 23 24 25 29 27 28 24 25 28 31 31 35 37 34 38 41 24 18 26 19 16 16 19 22 23 23 23 23 22 21 22 23 21 21 20 19 18 17 19
5 2 4 6 6 6 7 8 11 14 16 19 19 24 27 27 26 26 27 25 29 23 26 30 32 37 32 35 36 30 20 28 27 17 15 17 19 22 24 23 21 21 21 22 21 20 19 19 20 20 20 21 20 20
2 1 4 6 5 4 6 9 11 13 16 18 17 20 25 27 28 27 25 26 26 28 34 33 36 35 33 30 17 34 37 32 27 23 23 24 27 27 25 22 20 19 20 20 21 22 21 22 21 18 17 18 18 20
3 2 3 4 2 3 6 8 10 9 12 20 20 24 26 28 28 28 27 26 26 33 35 36 35 31 29 24 25 28 30 27 25 29 30 30 27 25 24 23 22 22 21 22 22 22 24 24 22 22 20 19 19 19
3 3 3 2 2 4 7 8 10 10 14 18 20 25 28 30 30 29 29 27 28 31 32 32 29 28 24 24 26 27 29 29 28 28 28 28 27 26 24 21 19 18 19 19 20 21 23 24 24 23 22 21 21 20
3 3 3 2 3 5 7 10 11 10 13 17 20 24 28 31 32 31 31 29 29 27 28 29 28 26 26 27 28 27 25 23 25 26 28 28 27 25 23 22 20 18 17 18 19 20 20 20 21 22 22 21 20 21
3 3 2 2 5 6 9 10 9 11 12 17 20 25 29 32 33 34 36 32 29 31 31 30 29 26 26 24 25 23 23 23 23 26 26 26 26 26 24 23 24 23 21 19 19 20 20 20 20 20 20 21 20 20
3 2 2 4 5 6 8 10 10 11 14 16 21 26 29 33 35 35 33 29 29 30 32 31 26 23 23 24 22 23 25 26 26 26 26 27 27 26 26 27 28 28 27 26 24 23 23 23 23 21 20 19 19 19
2 2 4 4 5 5 7 10 11 13 13 17 22 25 29 34 34 36 33 31 31 32 33 27 22 20 20 23 25 25 26 26 26 26 26 26 27 27 27 29 31 31 28 26 24 23 21 20 21 22 21 19 18 17
1 3 3 3 3 5 10 11 12 13 15 18 23 26 30 33 35 37 35 33 33 33 30 24 22 21 22 26 26 26 25 25 26 26 27 27 27 27 29 32 32 28 27 25 21 17 13 12 13 13 14 15 15 15
1 2 2 3 6 7 9 11 13 14 14 17 23 26 30 34 36 36 34 34 33 33 26 22 21 21 26 27 27 26 26 26 26 26 27 28 27 26 30 32 27 26 26 21 17 13 11 8 9 6 7 9 11 12
4 4 4 5 6 9 10 11 14 16 16 17 22 25 29 32 33 33 34 36 35 33 24 21 19 23 27 28 28 26 27 27 27 27 28 29 29 28 30 33 30 28 28 25 20 15 11 8 7 5 6 7 8 8
4 6 7 7 8 9 10 12 14 16 15 18 21 23 26 28 31 31 34 35 34 31 22 21 18 22 26 27 28 29 29 29 29 30 30 30 32 31 30 32 34 32 30 30 28 24 21 18 15 13 11 10 8 7
1 4 7 9 10 10 10 11 14 16 17 18 20 21 24 28 30 31 32 33 32 28 22 22 18 21 25 27 28 27 28 28 29 30 30 30 31 33 32 32 32 33 34 34 32 30 27 25 22 19 16 13 11 9
7 6 7 10 11 12 11 11 13 15 16 17 18 20 23 26 28 30 30 31 29 28 22 21 18 20 23 26 27 26 25 25 27 27 28 29 30 30 32 33 33 33 33 32 31 30 29 27 25 23 20 18 16 13
8 8 9 11 12 12 12 12 14 15 15 17 18 19 21 24 27 29 26 28 27 27 25 22 20 18 20 23 25 25 24 24 24 24 25 26 27 27 28 29 30 31 31 32 31 30 29 27 25 23 21 19 17 15
6 8 9 11 11 10 10 10 12 14 15 16 18 19 19 22 26 28 26 25 26 25 25 23 22 19 18 20 23 24 24 23 23 23 23 23 22 22 23 24 26 27 28 28 29 29 28 27 26 25 24 22 21 19

GFSWCAN_500_spd_063.txt.gz
Wind_Speed
31 28 27 27 25 21 21 25 28 26 23 22 21 21 21 21 20 20 20 20 18 15 12 11 14 18 19 20 22 19 20 22 17 18 19 16 10 9 11 7 6 12 17 21 27 31 37 35 38 46 48 52 56 57
29 27 25 25 23 20 20 24 25 24 19 20 21 21 21 21 21 22 23 23 21 17 13 10 19 22 21 22 22 20 18 22 22 20 19 18 12 10 9 6 4 8 16 21 25 26 31 31 34 36 45 46 49 50
27 26 23 23 21 20 20 22 22 19 20 18 21 21 20 20 20 21 24 25 23 19 13 13 14 22 21 22 23 24 23 21 23 23 18 16 14 11 11 11 11 7 6 5 14 21 10 21 32 29 29 42 41 49
25 24 22 21 19 18 19 19 19 17 18 18 21 20 20 20 20 20 22 23 24 22 20 20 19 21 23 22 23 23 25 22 25 25 21 17 12 10 7 8 7 9 9 4 1 6 4 17 29 28 19 33 35 41
23 22 20 18 17 16 17 16 17 15 18 19 19 20 19 19 19 19 19 21 21 22 21 20 20 22 23 23 23 25 25 26 26 25 26 19 15 14 10 3 3 6 7 5 4 9 9 11 22 31 31 30 32 39
21 20 18 15 14 13 14 15 15 15 16 18 20 20 20 19 18 18 19 19 19 19 18 19 18 20 22 23 23 24 24 25 26 27 26 22 23 21 15 10 9 9 10 7 6 5 10 15 13 17 27 30 34 47
19 19 16 13 11 11 12 12 13 13 15 18 20 22 22 20 18 18 18 18 20 19 18 17 16 18 19 20 21 22 24 24 26 25 25 24 24 21 22 19 13 9 10 12 8 3 2 13 16 23 23 17 37 49
17 17 15 11 8 8 9 10 10 11 14 18 20 21 20 19 18 18 18 19 19 19 18 16 13 13 14 16 18 20 22 22 24 21 22 23 24 24 22 20 20 21 14 8 7 8 7 5 6 16 19 18 29 34
15 15 13 10 6 5 7 8 9 10 13 16 19 20 20 19 19 18 18 17 18 18 16 16 16 16 14 14 13 18 21 20 23 24 24 22 21 21 22 23 23 20 18 17 16 9 5 5 3 4 16 25 28 37
14 14 10 9 5 4 6 7 8 11 14 17 17 18 19 18 18 19 19 19 16 14 13 14 15 16 15 13 14 15 18 19 21 22 25 25 23 21 20 20 20 22 22 20 20 20 20 13 6 2 6 13 28 38
13 12 10 8 5 4 5 7 10 12 15 17 18 20 20 19 17 19 21 18 16 14 14 15 15 15 17 18 18 18 19 18 21 22 22 21 23 23 24 23 18 18 18 18 18 17 16 16 17 10 7 4 22 37
12 11 9 8 6 5 6 8 10 13 15 16 18 20 21 20 18 19 21 22 17 15 17 17 20 21 22 21 21 19 19 21 25 27 19 18 18 20 21 21 22 18 16 15 14 14 14 13 11 12 10 1 9 36
10 11 8 8 6 5 7 9 11 13 14 17 19 20 21 20 20 21 24 23 24 23 23 23 28 30 25 26 25 22 22 30 29 26 25 18 17 18 21 20 18 19 18 16 15 13 13 11 12 8 7 11 4 18
10 9 8 7 7 6 8 10 11 12 14 16 18 20 23 24 22 24 25 21 22 23 24 25 28 29 27 29 27 27 26 29 29 33 22 19 18 17 19 18 15 14 16 17 17 14 15 15 11 10 8 7 11 9
10 8 8 7 6 5 7 8 10 10 12 14 17 21 24 21 20 21 21 24 29 25 28 38 27 26 33 34 34 29 32 34 30 14 16 21 20 17 17 17 18 17 15 16 16 17 16 16 17 14 11 10 11 13
11 7 7 8 5 5 7 9 9 10 12 14 15 17 22 23 23 23 24 32 36 23 30 28 27 32 34 32 26 32 31 31 18 16 19 15 14 15 17 19 20 21 21 18 16 16 16 15 17 18 16 14 13 16
9 6 7 8 5 5 6 7 8 10 12 14 15 15 22 25 26 28 28 27 28 29 27 30 27 32 42 38 31 28 16 16 13 14 12 14 14 16 19 21 22 22 22 20 17 15 14 15 14 16 19 18 17 17
6 6 7 6 5 5 4 6 8 9 9 12 15 16 22 25 26 26 27 28 29 27 29 31 35 33 29 30 26 21 24 21 15 15 16 17 19 21 21 20 19 19 18 18 18 17 14 15 15 16 16 18 20 19
6 6 5 5 5 4 3 6 8 7 8 15 19 19 22 26 28 27 28 30 30 29 32 32 33 31 27 23 22 23 23 23 21 19 23 17 18 20 20 19 18 17 18 19 20 20 17 15 15 16 17 19 20 20
7 5 3 4 3 2 3 6 7 9 12 14 16 21 25 27 31 32 33 34 32 30 29 29 27 25 23 22 22 22 22 19 18 22 22 23 21 20 20 21 21 19 18 19 18 20 19 18 14 14 17 17 20 21
7 4 4 4 3 1 4 6 8 9 10 13 18 22 26 29 33 35 36 33 30 31 30 30 27 24 21 21 24 24 22 21 20 22 24 23 22 21 21 22 21 20 18 17 17 20 21 20 18 16 16 17 18 19
5 5 4 3 2 3 4 7 8 9 11 14 18 22 27 31 34 34 34 32 32 34 32 31 25 21 20 23 23 24 22 23 24 26 25 24 24 25 24 24 23 23 23 22 22 23 22 21 22 21 18 18 19 19
5 4 3 3 2 3 6 7 8 9 11 15 19 22 26 31 34 32 32 35 32 33 32 27 21 20 20 23 26 25 24 24 22 23 25 26 25 24 24 24 24 25 26 26 25 24 23 25 25 25 21 19 18 18
5 4 3 3 4 5 6 8 9 10 11 14 17 22 25 30 33 33 35 35 33 32 26 21 21 21 25 25 23 23 24 24 24 23 25 27 28 26 25 27 30 29 23 21 21 20 17 11 15 18 21 22 19 18
4 3 2 3 4 4 5 9 9 10 11 13 17 21 24 29 30 29 35 36 34 28 22 22 21 26 26 28 27 25 24 26 27 26 26 28 27 27 29 31 30 26 24 22 20 19 8 13 11 28 24 20 19 17
3 2 2 3 3 3 6 9 10 11 12 14 17 20 23 27 30 30 32 34 30 24 20 19 21 26 27 26 26 27 26 26 26 26 27 28 26 27 29 29 28 28 26 22 17 13 8 9 17 18 14 13 14 15
3 2 3 3 4 5 8 8 10 11 12 13 17 20 24 28 31 31 31 32 28 21 19 17 20 25 26 26 26 27 27 26 26 26 28 29 28 28 29 30 28 28 27 23 18 14 8 4 6 5 2 4 8 10
6 4 3 2 4 6 7 8 10 11 13 14 16 19 22 25 27 29 28 29 27 20 19 16 18 23 25 25 24 25 25 25 25 26 26 29 30 30 30 31 31 30 30 30 26 22 19 15 12 10 7 6 6 6
5 2 4 5 7 8 9 8 10 12 14 15 17 18 20 22 25 26 26 28 28 22 19 17 17 20 23 24 23 22 24 25 26 27 28 29 30 31 32 32 31 31 32 31 30 29 26 24 21 18 15 12 9 6
3 2 5 7 9 9 9 12 11 13 15 16 16 17 19 20 24 25 25 25 26 25 22 20 17 19 21 24 24 23 22 22 22 24 25 25 26 28 29 31 32 32 31 31 30 29 28 27 25 23 20 18 15 13
7 8 8 9 9 10 9 8 10 13 15 16 16 18 19 21 23 22 23 22 24 25 24 21 19 17 18 21 23 24 23 22 22 22 22 21 22 23 25 26 28 29 30 30 30 29 27 26 24 22 19 17 16 14
9 9 9 8 5 17 12 10 11 13 15 15 16 18 20 22 23 22 26 22 21 22 23 23 20 18 18 20 22 24 24 23 23 23 23 22 19 19 20 22 23 25 26 28 28 28 28 27 26 25 23 20 18 16
7 6 7 9 11 12 11 11 12 12 15 17 18 20 20 22 21 20 26 24 20 20 21 22 21 19 18 19 21 22 22 21 21 23 25 25 23 21 20 20 21 22 23 24 26 27 27 28 27 27 26 25 24 22

GFSWCAN_500_spd_069.txt.gz
Wind_Speed
44 40 37 25 17 18 16 14 13 12 15 17 19 20 20 18 18 19 21 17 15 12 13 13 13 14 15 16 16 19 18 16 14 16 16 11 12 13 14 18 18 17 15 15 16 22 28 28 30 34 40 52 46 58
42 41 34 19 16 15 13 12 12 11 13 14 16 18 19 17 17 17 17 18 13 11 9 13 15 17 17 18 18 19 18 19 20 18 16 14 11 13 11 14 17 16 17 19 21 21 27 25 31 31 34 47 48 55
40 37 32 10 14 14 10 10 10 9 12 14 16 18 19 19 17 17 18 17 17 13 10 10 10 11 13 14 17 19 22 23 22 20 18 17 15 15 14 14 14 16 16 17 21 27 32 30 36 36 34 43 51 49
35 31 34 6 13 12 9 7 7 8 11 13 16 17 18 19 19 18 17 17 18 15 9 9 9 9 10 11 15 18 19 20 19 19 20 19 20 21 21 20 23 19 16 16 17 18 28 31 33 33 36 38 47 49
34 32 28 4 12 11 9 6 6 6 8 10 13 16 20 20 19 19 18 18 18 17 14 11 11 13 10 10 10 14 15 16 20 19 18 18 19 20 21 22 22 22 23 19 14 13 16 19 24 26 28 34 44 48
36 32 24 3 12 10 9 7 7 6 7 9 12 15 18 19 19 19 18 19 19 17 14 14 15 15 17 9 12 13 13 14 15 17 19 20 21 20 21 22 21 24 25 21 23 17 10 9 17 21 20 16 28 42
29 32 21 3 11 10 10 9 9 8 10 12 14 17 20 20 19 17 18 19 17 18 16 15 16 20 19 19 21 17 17 19 19 18 16 20 22 20 22 23 24 22 21 23 23 21 18 11 11 10 18 19 20 26
32 35 20 3 11 9 10 11 10 10 10 12 15 19 20 21 20 19 18 19 20 20 20 17 16 16 18 21 25 18 23 24 25 19 18 19 19 19 21 22 25 25 23 23 23 25 24 24 15 12 10 16 21 23
27 33 12 4 11 8 9 10 9 10 10 11 15 18 19 21 20 19 19 21 20 18 18 18 20 23 19 20 25 27 24 19 20 16 16 16 18 18 25 25 25 27 27 26 26 20 20 22 26 20 12 10 13 21
33 31 4 8 11 8 8 10 9 9 9 11 13 14 18 22 22 18 17 15 13 15 19 22 24 24 22 22 21 29 25 20 20 17 18 23 17 20 23 23 24 28 30 32 31 25 22 22 21 25 19 8 5 10
38 20 2 9 9 8 8 9 8 8 9 10 10 13 17 20 21 20 19 14 11 29 24 16 32 33 25 18 24 31 26 21 19 16 15 23 21 19 23 26 26 27 29 30 29 27 24 20 18 19 23 16 5 6
32 7 3 9 8 8 8 9 8 8 9 9 8 10 16 20 21 22 28 26 19 34 34 25 29 38 31 22 24 26 32 24 18 16 17 16 27 25 18 25 26 29 32 31 27 25 22 22 18 17 16 20 16 6
15 3 7 8 8 7 9 9 8 8 8 7 8 12 16 20 26 20 25 31 32 35 27 37 38 35 32 30 26 17 15 21 18 11 11 16 15 25 10 20 25 32 27 24 28 29 27 26 21 17 16 14 16 15
5 6 6 7 7 8 9 7 7 7 7 6 9 14 17 20 20 19 25 27 34 34 34 30 34 36 28 22 15 32 23 16 14 31 22 22 12 17 30 30 25 28 26 24 27 30 31 29 25 19 16 14 12 12
6 6 6 7 8 8 8 6 5 6 6 8 11 12 16 21 28 18 40 21 34 32 34 35 29 30 25 23 24 21 20 17 15 18 22 22 23 23 24 29 31 29 29 31 32 28 25 26 27 23 17 15 13 13
6 4 7 8 8 8 6 4 5 5 6 8 8 13 18 22 27 30 33 35 37 41 39 40 19 24 25 23 20 18 18 17 21 23 23 21 21 22 23 23 23 23 23 21 19 11 28 25 23 22 16 18 14 12
4 6 7 7 6 7 5 4 4 5 6 8 10 15 19 19 28 33 36 40 41 42 39 31 24 33 25 20 19 19 20 21 20 18 16 18 20 23 24 24 23 22 21 19 18 20 24 19 19 23 19 19 16 13
5 8 6 5 6 5 4 4 4 6 7 8 10 12 16 20 25 31 35 34 40 40 34 30 25 21 18 16 15 19 21 18 17 19 18 16 19 22 24 25 25 24 22 20 17 15 16 19 24 24 24 20 19 15
7 6 5 5 5 5 4 4 4 6 8 10 10 10 12 17 23 29 30 31 44 36 29 31 27 22 22 20 19 22 21 20 20 20 20 16 17 29 29 27 24 20 19 15 12 14 19 19 18 19 23 20 21 17
5 6 5 4 5 4 3 3 5 8 11 8 8 10 15 20 26 31 28 29 44 35 29 27 25 27 24 28 18 16 27 24 22 21 15 11 24 32 33 29 26 21 16 13 15 14 19 17 19 24 25 21 18 20
8 7 3 3 4 3 2 3 6 11 9 14 10 9 15 19 27 33 30 32 36 29 27 24 27 26 28 24 26 18 24 25 23 22 21 19 24 26 32 30 28 26 23 18 17 18 22 20 20 25 25 23 17 16
10 5 3 4 5 3 4 6 6 9 11 13 17 15 20 24 27 31 33 29 31 25 25 21 25 25 25 23 22 22 24 25 26 26 25 25 25 24 26 27 29 32 29 24 23 21 19 19 21 22 11 17 18 20
9 4 4 4 5 5 5 9 10 10 5 15 6 13 13 21 25 29 32 35 34 27 24 20 22 21 19 21 22 22 21 24 25 27 28 28 30 30 28 28 26 26 31 32 39 34 26 19 14 14 12 20 21 18
7 5 4 4 3 4 5 7 12 18 19 13 11 15 17 26 25 28 34 37 34 34 26 23 22 24 24 24 23 24 25 25 25 27 29 31 31 30 30 29 28 27 26 27 23 18 18 16 10 17 19 18 18 8
7 6 4 3 4 4 5 11 6 17 5 6 17 17 12 20 26 32 32 33 31 31 26 24 22 23 25 27 28 26 26 26 26 26 27 29 31 33 34 33 31 30 29 29 24 17 13 11 11 10 12 12 13 13
9 6 4 2 1 4 4 10 8 9 11 12 17 13 16 22 30 28 29 31 28 31 31 28 25 22 23 24 26 27 27 26 26 25 25 26 28 31 33 34 32 31 30 29 27 25 18 6 4 4 7 15 20 23
9 8 5 2 2 2 8 11 8 6 6 16 11 22 22 10 23 27 26 30 27 29 30 29 26 23 23 25 26 26 25 24 24 24 24 22 24 25 29 33 35 34 31 30 29 27 24 15 10 8 7 5 6 3
10 7 3 3 4 4 5 7 10 13 16 9 15 18 20 13 25 25 22 28 27 26 27 27 26 25 24 26 27 27 26 24 26 23 17 17 20 23 26 28 30 33 33 31 29 28 27 24 21 19 16 14 12 10
10 7 5 5 5 8 11 7 3 6 12 11 13 16 16 20 22 22 18 23 27 26 25 25 24 21 19 22 24 25 25 27 29 28 26 22 21 21 22 24 27 28 31 33 33 31 28 26 24 23 21 20 18 16
9 5 3 6 8 6 8 6 8 7 6 11 13 15 17 19 22 25 25 24 26 28 27 27 27 26 25 23 24 24 24 25 26 25 24 23 21 21 22 24 25 27 29 30 30 31 31 30 27 25 22 20 18 15
7 3 7 10 6 5 9 4 5 11 13 16 2 8 16 20 24 27 27 26 26 24 26 22 24 25 24 24 23 22 22 23 23 23 22 21 20 20 22 24 24 26 27 27 27 27 28 28 28 27 26 25 23 21
10 10 13 9 11 11 10 8 13 9 12 10 4 6 13 23 25 24 24 24 24 24 28 27 21 22 22 22 23 22 22 21 20 20 20 19 19 20 22 23 23 24 25 25 25 26 26 26 26 25 24 24 24 23
10 10 8 10 9 10 17 21 9 9 12 17 10 9 20 22 23 23 20 21 20 24 26 28 22 19 19 19 20 21 20 20 19 18 18 18 18 19 20 21 22 23 24 25 26 25 25 25 25 24 23 22 22 21

GFSWCAN_500_spd_072.txt.gz
Wind_Speed
44 42 38 34 29 7 13 11 12 11 11 13 15 17 20 20 20 19 19 20 17 14 11 12 13 13 12 14 15 14 13 14 13 11 11 9 6 6 11 15 20 24 26 25 26 28 25 20 27 35 36 34 38 50
44 41 39 33 35 8 12 10 9 9 10 13 15 16 17 18 20 20 19 19 17 15 12 9 9 11 11 13 16 16 16 15 15 15 15 13 11 10 11 11 12 17 21 24 27 26 27 26 24 27 32 38 36 43
45 42 37 32 30 8 10 9 7 7 7 11 14 18 17 17 17 18 18 18 17 16 15 12 11 10 9 9 12 13 13 13 12 14 15 12 10 10 10 10 11 13 13 15 19 24 25 24 27 31 28 28 34 40
45 38 35 33 31 3 10 8 7 5 3 6 11 15 18 20 18 16 17 17 17 15 12 13 14 13 11 11 9 7 10 12 11 11 11 11 12 11 12 13 15 16 17 18 21 21 21 21 26 26 32 35 39 42
41 34 32 30 31 4 10 10 8 7 4 5 11 15 17 19 18 16 16 17 17 15 14 13 13 15 14 17 18 13 12 14 14 15 14 11 11 13 10 11 14 16 18 20 21 22 23 22 21 24 28 31 34 36
39 31 28 30 27 5 9 11 10 10 8 8 12 15 16 17 17 17 16 15 17 17 16 16 18 15 16 17 16 22 19 22 21 18 19 19 15 17 14 15 17 18 18 21 23 22 22 23 21 21 23 28 30 28
34 29 22 32 22 4 9 12 11 11 9 9 11 14 16 17 18 19 18 19 20 21 19 16 16 22 22 22 19 20 18 21 20 17 15 18 19 15 16 16 20 19 19 23 24 27 25 24 22 21 19 19 24 28
35 27 19 32 21 2 12 11 10 10 8 8 10 12 13 17 20 19 16 15 18 19 21 20 19 22 22 24 27 29 23 19 19 18 17 13 18 12 16 19 22 19 20 24 26 27 26 23 22 21 21 16 15 16
21 23 22 33 16 1 12 10 9 8 6 7 10 10 11 15 18 21 20 15 15 14 24 19 16 26 28 30 26 23 22 17 15 17 15 19 16 12 16 18 20 17 17 19 22 25 29 28 26 22 22 23 17 16
23 25 25 29 7 5 10 9 8 7 4 8 9 8 10 15 18 18 20 20 23 16 30 26 21 26 29 29 30 25 29 18 16 25 23 15 27 13 17 23 25 25 21 21 26 24 26 28 27 27 24 21 20 14
18 24 33 15 5 9 9 8 8 7 5 8 8 9 10 14 18 19 16 19 27 26 27 31 26 31 28 29 23 20 24 37 23 18 15 16 24 26 25 25 25 25 25 24 30 25 23 23 23 25 26 22 20 21
24 32 21 7 5 7 8 7 8 5 6 8 8 9 13 16 19 23 21 24 25 34 34 36 30 28 30 33 21 15 16 14 10 16 5 11 16 27 26 27 29 19 26 28 30 28 26 24 23 23 24 24 19 21
27 28 8 3 5 6 6 8 7 5 7 8 9 10 13 15 20 21 18 29 22 34 35 32 31 35 26 17 10 17 14 8 12 6 21 23 18 16 17 21 32 28 28 27 28 31 30 25 24 23 20 22 18 18
21 9 4 4 4 5 5 6 6 5 6 6 9 12 11 14 16 21 25 26 28 31 35 29 37 27 19 16 12 15 15 15 15 17 20 21 19 17 20 23 25 28 26 22 22 21 23 21 20 21 21 18 17 15
10 6 5 3 4 4 5 6 5 5 6 6 9 9 14 18 20 23 28 30 32 41 39 33 28 26 22 19 16 15 15 17 20 20 20 20 16 16 19 23 24 23 23 21 22 22 25 20 15 22 17 15 17 14
8 6 4 2 2 4 7 6 4 4 5 6 8 11 15 18 21 27 34 38 32 40 37 30 29 24 19 18 15 16 19 20 20 19 18 19 18 19 21 24 26 25 24 23 21 21 17 21 23 21 15 16 15 12
6 5 2 1 4 6 7 5 3 4 5 7 9 11 15 11 19 28 36 37 34 38 30 29 24 22 20 19 16 16 20 20 19 19 22 21 19 18 19 23 26 28 26 23 22 19 19 20 14 10 18 18 14 11
6 3 2 4 5 6 5 4 3 4 5 6 9 8 17 15 20 25 32 36 33 32 28 25 26 22 21 24 17 13 24 24 20 18 18 17 17 23 29 35 32 28 25 20 16 16 17 14 17 18 17 15 13 11
3 3 5 6 6 6 5 4 4 6 6 8 11 13 9 12 17 24 31 34 34 30 27 24 22 24 24 24 24 18 17 21 21 20 22 19 21 26 26 34 27 30 24 21 22 20 21 17 17 19 20 18 16 15
3 6 7 6 5 6 6 5 5 8 7 8 11 16 8 15 22 26 30 36 36 31 26 22 22 21 22 23 23 22 21 22 23 25 23 23 24 24 25 25 24 24 20 15 19 20 21 21 14 13 17 21 19 17
8 10 7 4 6 7 6 5 5 7 9 9 9 7 5 17 21 25 30 34 34 33 23 21 23 24 24 24 25 24 23 23 23 25 26 26 27 31 30 29 28 29 19 18 24 28 22 17 17 17 17 18 17 16
11 8 5 5 7 6 5 3 6 8 8 12 3 7 6 10 17 24 28 29 29 31 26 24 21 23 25 25 23 23 23 25 24 24 25 27 29 32 35 35 31 29 26 21 23 28 27 26 27 33 27 22 17 17
11 7 4 4 6 5 4 6 8 9 14 13 4 3 11 17 21 22 25 29 29 33 31 25 20 19 20 23 24 25 23 21 23 24 25 25 27 30 32 32 29 29 28 26 25 24 26 25 15 11 11 11 13 16
11 6 4 5 4 3 5 8 11 8 11 12 14 9 6 8 20 26 25 28 29 30 31 29 26 23 23 26 28 29 28 27 25 24 23 23 24 28 32 35 35 31 29 28 28 22 14 9 6 6 8 13 12 12
9 7 6 5 3 2 3 4 6 7 12 3 3 10 16 16 17 24 24 27 28 28 30 31 29 27 24 26 29 29 29 27 28 27 23 21 23 26 29 32 34 34 30 29 29 28 24 16 6 3 3 7 8 7
9 8 6 4 4 3 2 4 5 11 13 5 6 11 17 8 14 22 21 24 27 27 29 32 31 28 25 26 28 29 28 29 30 28 25 22 22 24 25 28 33 35 35 31 30 28 26 21 14 10 5 7 9 13
10 8 5 3 3 5 6 6 7 5 2 6 13 17 12 13 16 17 18 20 26 27 26 28 31 29 26 24 25 25 26 27 27 28 25 22 21 23 26 28 30 31 34 35 32 29 27 25 22 19 16 12 9 6
10 7 4 3 1 3 6 8 9 11 10 9 9 13 10 17 18 20 18 18 21 23 23 23 26 27 29 27 25 25 24 23 23 23 21 21 22 25 26 27 29 30 30 31 33 32 29 26 24 23 22 21 18 15
11 8 3 2 3 7 8 6 8 5 6 5 8 9 12 14 16 20 21 20 20 21 20 17 20 26 26 26 26 26 26 25 24 23 22 21 22 25 26 28 28 28 29 30 30 30 30 30 29 26 23 20 18 17
12 10 4 2 4 8 8 12 6 7 10 11 12 10 7 12 18 20 19 20 21 20 20 22 22 20 22 24 25 25 26 25 24 23 22 23 24 24 24 24 26 27 27 28 28 28 27 27 27 27 26 25 22 19
13 6 1 5 6 6 7 10 13 10 12 8 8 12 9 10 14 18 19 17 17 19 22 23 22 20 20 22 24 23 23 24 23 23 22 22 22 23 24 24 25 26 27 27 27 26 25 24 23 22 22 22 21 21
14 9 8 9 8 10 12 12 16 21 21 21 19 17 10 5 8 15 17 15 17 18 20 21 22 23 23 20 20 21 22 22 22 22 21 21 21 22 23 25 26 26 27 26 26 25 24 23 22 21 20 20 19 19
12 13 14 10 8 7 11 16 19 17 16 14 11 12 19 10 13 14 22 22 20 18 17 19 20 22 22 19 18 19 20 20 20 20 21 21 21 21 21 22 23 24 25 25 26 25 24 24 23 22 21 20 20 19

GFSWCAN_500_spd_075.txt.gz
Wind_Speed
39 39 40 37 35 31 25 6 9 10 9 10 13 13 14 16 18 18 17 16 15 13 10 9 8 10 13 13 10 10 11 10 8 7 4 2 1 1 3 6 9 14 19 23 26 29 31 31 35 39 39 35 36 42
39 41 39 34 33 30 22 3 9 9 6 6 7 11 14 16 17 18 17 18 15 13 9 9 10 8 9 11 12 11 12 10 10 7 6 7 7 6 5 2 4 9 11 15 20 24 28 30 32 34 35 36 36 38
38 38 38 34 33 30 26 2 9 9 5 2 5 10 14 16 16 17 18 17 16 14 12 11 12 12 11 13 14 12 13 10 9 9 9 7 5 5 4 4 6 8 10 12 13 14 16 21 25 27 30 32 37 38
37 37 35 30 29 28 25 4 10 10 8 6 7 10 13 16 16 16 15 17 18 17 15 16 13 11 12 13 16 20 19 17 16 16 15 15 12 9 10 11 11 13 13 15 16 18 18 17 17 19 24 27 31 37
37 36 32 28 29 26 19 8 11 12 11 10 11 11 12 15 17 16 14 13 16 17 17 17 17 17 12 14 16 15 15 20 23 25 23 22 22 21 19 17 18 18 18 19 19 24 25 25 22 21 20 21 25 30
36 34 29 31 19 25 20 10 12 13 13 12 12 12 12 14 17 16 16 15 14 17 17 19 20 19 18 19 22 24 23 21 20 19 20 23 25 24 24 21 20 20 19 22 23 26 27 24 23 21 20 21 22 25
33 32 24 20 16 25 21 9 11 13 12 10 10 11 11 13 17 17 17 17 17 18 19 19 18 20 22 19 17 22 26 30 25 27 24 22 23 23 25 24 21 19 19 18 21 21 23 26 26 23 22 21 24 24
29 28 20 22 19 28 15 6 12 11 10 9 8 8 9 10 13 16 14 17 16 16 18 24 26 21 20 21 30 29 27 25 30 29 25 21 22 24 24 24 17 21 20 21 21 20 23 24 24 23 22 22 21 25
26 25 19 20 22 27 12 8 11 10 7 8 6 8 7 9 13 17 20 14 20 23 20 18 30 29 23 25 32 27 26 24 36 36 23 23 21 26 24 20 15 16 18 18 18 21 26 27 27 27 23 22 23 21
25 20 17 19 29 12 7 9 9 8 6 6 6 7 7 11 16 19 21 19 22 16 28 23 30 28 26 29 25 33 31 26 22 20 14 18 14 17 30 22 18 13 16 22 22 23 26 30 27 26 29 26 24 23
20 17 17 23 25 11 7 9 8 7 6 6 7 6 9 13 17 20 18 19 18 16 29 27 31 32 31 32 27 26 24 12 14 13 12 13 19 18 15 18 18 29 27 20 21 28 32 32 28 29 29 28 27 23
13 13 17 29 10 7 7 8 9 8 6 6 7 7 10 13 12 16 17 22 24 27 31 33 32 31 27 19 16 16 17 11 9 17 20 17 13 21 17 17 17 21 17 28 31 33 33 32 31 30 25 24 26 23
11 14 23 12 7 6 8 8 8 7 5 5 5 6 10 11 15 16 17 26 26 28 34 35 28 26 23 16 19 14 13 20 25 21 20 22 25 20 21 19 20 25 33 32 31 26 22 22 23 23 19 21 21 19
15 22 11 9 6 7 8 8 7 6 5 6 6 6 8 12 13 19 19 28 30 30 32 33 29 23 20 17 16 16 16 15 17 21 23 23 22 21 17 13 15 19 23 28 29 27 23 20 21 20 16 21 20 18
16 8 9 7 6 8 8 9 6 5 5 6 6 6 10 12 12 17 24 30 31 30 29 27 24 23 20 17 15 13 14 18 21 20 19 19 19 18 17 17 19 21 25 26 27 25 23 21 21 17 19 23 20 18
8 9 9 6 8 9 8 8 6 5 6 6 6 8 12 15 15 19 24 30 31 30 27 26 24 21 21 21 17 13 13 19 22 20 20 22 21 19 20 21 26 32 40 30 27 23 21 19 14 21 26 21 17 16
9 9 7 6 8 8 8 7 6 5 6 6 8 12 14 21 17 20 24 28 31 30 26 23 22 22 20 21 20 14 14 19 19 19 19 21 21 22 21 25 30 35 37 34 29 23 19 20 17 14 12 14 15 15
9 8 6 7 7 8 8 7 4 4 5 8 10 11 12 12 16 19 24 31 31 30 24 21 21 21 21 21 21 21 18 16 17 19 20 21 21 23 23 26 29 31 29 29 26 24 22 22 20 19 18 16 18 17
8 8 7 8 8 9 8 5 3 5 6 9 12 14 15 12 14 20 26 29 28 30 26 23 21 21 21 20 20 20 20 19 19 20 21 22 23 24 25 23 22 21 22 23 23 13 16 16 15 14 11 12 15 16
6 6 9 9 9 8 7 5 4 4 6 9 10 12 7 14 17 20 24 28 26 28 28 25 21 20 21 23 24 24 23 22 22 22 23 23 25 26 29 30 25 18 21 24 23 21 21 24 19 10 17 16 15 16
5 10 9 8 8 8 7 6 4 4 6 7 7 8 3 10 16 18 22 27 26 27 27 25 24 23 23 24 25 24 24 23 22 24 24 24 23 25 29 31 31 29 28 28 27 22 21 17 16 13 13 17 19 18
11 11 9 8 8 8 6 5 4 6 9 13 10 3 4 7 12 18 23 24 25 24 27 27 26 23 22 23 25 26 25 24 23 23 22 21 23 25 28 32 34 32 29 29 28 25 19 27 27 23 17 19 22 13
13 10 8 6 6 6 5 4 4 3 5 3 3 5 4 7 14 20 24 23 24 22 24 28 27 26 24 24 25 26 26 27 24 24 21 20 23 24 25 30 33 34 31 30 29 28 16 3 5 3 5 3 6 10
13 10 7 6 6 6 3 1 2 3 2 1 2 3 8 15 17 15 21 20 23 24 24 25 26 27 26 25 25 26 27 27 26 24 21 21 22 24 26 28 31 34 35 32 30 29 21 6 6 11 7 4 6 5
13 10 8 6 5 2 0 2 6 6 5 5 6 7 13 16 11 18 17 18 21 25 24 22 24 26 27 25 25 26 27 26 24 23 21 21 23 25 27 29 30 31 34 34 31 29 27 19 10 1 3 8 11 13
12 10 8 7 4 2 1 2 1 2 5 4 5 13 16 14 14 14 18 19 20 21 22 22 23 23 24 23 24 26 27 26 24 23 23 23 24 26 27 28 29 30 31 33 34 31 28 25 21 15 11 6 6 9
11 9 8 7 5 3 2 2 4 7 7 7 12 11 9 11 16 18 20 19 20 19 18 21 20 20 20 21 22 23 24 24 25 25 24 24 25 26 26 28 30 30 30 30 30 31 31 28 25 23 21 19 17 15
11 11 8 5 4 3 3 4 3 4 4 6 6 7 8 13 15 19 25 21 20 20 18 20 20 19 19 19 19 19 20 21 23 24 24 25 25 26 27 28 29 29 28 29 29 29 29 30 30 27 23 21 20 19
11 10 8 8 5 0 1 6 8 10 9 11 12 13 15 16 17 21 26 21 15 17 19 18 21 19 18 18 17 17 19 20 21 21 23 24 26 27 28 29 29 29 29 28 27 26 25 25 25 26 26 25 23 19
14 12 8 5 2 3 3 4 6 10 12 12 13 17 19 19 16 20 24 20 14 12 16 17 18 20 19 16 16 17 17 19 20 20 21 22 24 25 26 28 29 29 29 29 29 28 26 25 24 23 22 22 22 22
14 11 7 4 5 7 10 11 11 13 14 17 19 21 16 14 17 13 16 19 13 14 15 15 14 16 19 17 16 16 17 18 19 19 19 20 22 22 24 25 26 27 28 28 28 27 27 26 24 24 23 22 20 19
18 14 7 4 8 9 7 10 9 15 18 16 15 12 10 10 11 10 16 17 19 18 15 15 15 15 17 18 16 15 16 17 17 17 17 18 19 21 22 23 24 25 26 26 26 25 25 25 24 23 22 22 21 21
18 16 11 9 10 11 13 12 10 12 12 17 17 20 19 18 23 28 17 15 17 18 16 15 14 15 15 15 15 16 15 15 15 16 17 17 17 18 19 20 21 22 23 23 23 23 23 23 23 23 22 22 22 21